EW0747 Ljugarn SE current weather conditions

sailwx.info

Wind from 216 at 0 knots gusting 11

Air temperature 3.9° C
Dewpoint -2.3° C

Last reported at 2020-Jan-22 15:01 UTC.
Time now 2020-Jan-22 15:36 UTC

Location: N 57°20' E 018°43'.
View on Google Maps.

See reports from other nearby stations

  
Tides and Currents Weather Stations Pressure Air Temp Water Temp Dewpoint Dewpoint Depression Visibility Wind Speed Wind Dir Waves Ship Positions
date/time (UTC)wind fromknots sea level pressurealtimeterstation pressurevisibilityair tempwater tempwave heightnotes
2020-Jan-22 15:01 216 0 gusting 11 3.9
2020-Jan-22 14:30 240 4.4
2020-Jan-22 14:15 256 2 gusting 18 4.4
2020-Jan-22 14:00 267 5 gusting 19 4.4
2020-Jan-22 13:31 257 7 gusting 19 5.0
2020-Jan-22 13:15 263 5 gusting 19 5.0
2020-Jan-22 13:00 259 2 gusting 15 5.0
2020-Jan-22 12:32 289 6 gusting 17 5.6
2020-Jan-22 12:17 246 4 gusting 13 5.6
2020-Jan-22 12:02 217 3 gusting 16 5.6
2020-Jan-22 11:47 223 6 gusting 18 5.6
2020-Jan-22 11:32 277 6 gusting 15 5.6
2020-Jan-22 11:16 227 5 gusting 19 5.6
2020-Jan-22 11:01 202 5 gusting 25 5.6
2020-Jan-22 10:47 271 3 gusting 12 5.6
2020-Jan-22 10:31 172 1 gusting 16 5.6
2020-Jan-22 10:16 219 1 gusting 16 5.6
2020-Jan-22 10:01 303 6 gusting 16 5.6
2020-Jan-22 09:46 199 1 gusting 19 5.6
2020-Jan-22 09:32 223 3 gusting 17 5.6
2020-Jan-22 09:17 280 3 gusting 13 5.6
2020-Jan-22 09:01 154 2 gusting 15 5.6
2020-Jan-22 08:46 240 3 gusting 11 5.6
2020-Jan-22 08:31 319 1 gusting 13 5.6
2020-Jan-22 08:16 254 3 gusting 13 5.0
2020-Jan-22 08:00 239 1 gusting 13 5.0
2020-Jan-22 07:46 260 3 gusting 16 5.0
2020-Jan-22 07:31 272 3 gusting 11 5.0
2020-Jan-22 07:15 210 0 gusting 11 4.4
2020-Jan-22 07:01 279 1 gusting 13 4.4
2020-Jan-22 06:46 235 2 gusting 9 4.4
2020-Jan-22 06:30 240 4 gusting 9 5.0
2020-Jan-22 06:15 205 3 gusting 11 5.0
2020-Jan-22 06:01 223 5.0
2020-Jan-22 05:45 266 4 gusting 18 5.0
2020-Jan-22 05:30 263 4 gusting 12 4.4
2020-Jan-22 05:16 227 0 gusting 7 4.4
2020-Jan-22 05:00 266 5.0
2020-Jan-22 04:45 144 5.0
2020-Jan-22 04:30 288 5.0
2020-Jan-22 04:15 227 5.0
2020-Jan-22 04:00 280 0 gusting 9 5.0
2020-Jan-22 03:45 225 4 gusting 12 5.0
2020-Jan-22 03:32 220 5.0
2020-Jan-22 03:17 205 1 gusting 12 5.0
2020-Jan-22 03:02 277 5.6
2020-Jan-22 02:47 302 5.6
2020-Jan-22 02:32 248 5.6
2020-Jan-22 02:16 121 5.6
2020-Jan-22 02:03 205 2 gusting 9 5.6
2020-Jan-22 01:46 200 5.6
2020-Jan-22 01:31 194 5.6
2020-Jan-22 01:17 086 5.6
2020-Jan-22 01:01 205 5.6
2020-Jan-22 00:46 207 5.6
2020-Jan-22 00:31 200 6.1
2020-Jan-22 00:16 246 6.1
2020-Jan-22 00:01 244 6.1
2020-Jan-21 23:46 208 6.1
2020-Jan-21 23:32 109 6.1
2020-Jan-21 23:16 251 0 gusting 8 6.7
2020-Jan-21 23:01 220 0 gusting 8 6.7
2020-Jan-21 22:45 119 6.7
2020-Jan-21 22:30 210 0 gusting 9 6.7
2020-Jan-21 22:16 077 1 gusting 7 6.7
2020-Jan-21 22:00 181 1 gusting 7 6.7
2020-Jan-21 21:46 202 6.7
2020-Jan-21 21:31 151 0 gusting 7 6.7
2020-Jan-21 21:16 193 6.7
2020-Jan-21 21:02 138 6.7
2020-Jan-21 20:45 211 0 gusting 6 6.7
2020-Jan-21 20:30 152 6.7
2020-Jan-21 20:15 142 6.7
2020-Jan-21 20:00 136 6.7
2020-Jan-21 19:45 140 6.7
2020-Jan-21 19:30 159 6.7
2020-Jan-21 19:15 150 6.7
2020-Jan-21 18:45 142 6.7
2020-Jan-21 18:30 146 6.7
2020-Jan-21 18:15 190 6.7
2020-Jan-21 18:00 087 7.2
2020-Jan-21 17:45 220 7.2
2020-Jan-21 17:30 206 7.2
2020-Jan-21 17:15 154 7.2
2020-Jan-21 17:00 195 7.2
2020-Jan-21 16:45 134 7.2
2020-Jan-21 16:31 207 0 gusting 6 7.8
2020-Jan-21 16:15 126 7.8
2020-Jan-21 16:00 149 7.8
2020-Jan-21 15:45 155 7.8
2020-Jan-21 15:30 141 8.3
2020-Jan-21 15:15 187 8.3
2020-Jan-21 15:00 188 8.3
2020-Jan-21 14:45 202 8.9
2020-Jan-21 14:30 111 8.9
2020-Jan-21 14:16 182 8.9
2020-Jan-21 14:00 134 0 gusting 6 8.9
2020-Jan-21 13:45 134 9.4
2020-Jan-21 13:30 169 9.4
2020-Jan-21 13:15 220 10.0
2020-Jan-21 13:00 171 0 gusting 7 10.0
2020-Jan-21 12:45 113 10.0
2020-Jan-21 12:33 117 1 gusting 15 9.4
2020-Jan-21 12:02 109 2 gusting 7 8.9
2020-Jan-21 11:48 185 0 gusting 7 8.9
2020-Jan-21 11:33 140 0 gusting 9 8.9
2020-Jan-21 11:17 165 0 gusting 9 8.9
2020-Jan-21 11:03 142 8.3
2020-Jan-21 10:46 167 0 gusting 11 8.3
2020-Jan-21 10:32 246 0 gusting 9 8.3
2020-Jan-21 10:16 129 4 gusting 13 8.3
2020-Jan-21 10:01 232 2 gusting 13 8.3
2020-Jan-21 09:46 130 3 gusting 16 8.3
2020-Jan-21 09:32 148 1 gusting 15 7.8
2020-Jan-21 09:16 217 3 gusting 13 7.8
2020-Jan-21 09:00 119 2 gusting 17 7.8
2020-Jan-21 08:46 192 2 gusting 17 7.8
2020-Jan-21 08:32 167 4 gusting 19 7.8
2020-Jan-21 08:16 191 1 gusting 10 7.2
2020-Jan-21 08:02 140 4 gusting 12 7.2
2020-Jan-21 07:46 138 2 gusting 12 7.2
2020-Jan-21 07:31 215 3 gusting 13 7.2
2020-Jan-21 07:15 151 0 gusting 12 7.2
2020-Jan-21 07:01 179 1 gusting 13 7.2
2020-Jan-21 06:45 148 2 gusting 13 6.7
2020-Jan-21 06:30 186 0 gusting 12 6.7
2020-Jan-21 06:15 146 2 gusting 13 6.7
2020-Jan-21 06:00 171 3 gusting 15 6.7
2020-Jan-21 05:45 184 0 gusting 15 6.7
2020-Jan-21 05:30 162 2 gusting 13 6.7
2020-Jan-21 05:15 223 1 gusting 12 6.7
2020-Jan-21 05:00 182 1 gusting 13 6.7
2020-Jan-21 04:45 196 1 gusting 8 6.7
2020-Jan-21 04:30 130 1 gusting 12 6.7
2020-Jan-21 04:15 133 3 gusting 10 6.7
2020-Jan-21 04:00 166 1 gusting 13 6.7
2020-Jan-21 03:45 136 3 gusting 17 6.7
2020-Jan-21 03:33 160 2 gusting 13 6.7
2020-Jan-21 03:17 129 1 gusting 9 6.7
2020-Jan-21 03:03 189 1 gusting 10 6.7
2020-Jan-21 02:47 220 1 gusting 8 6.7
2020-Jan-21 02:31 163 0 gusting 8 6.7
2020-Jan-21 02:18 194 0 gusting 8 6.7
2020-Jan-21 02:02 182 0 gusting 10 6.7
2020-Jan-21 01:46 206 6.7
2020-Jan-21 01:31 140 0 gusting 7 6.7
2020-Jan-21 01:17 189 1 gusting 11 6.7
2020-Jan-21 01:02 167 1 gusting 7 6.7
2020-Jan-21 00:46 224 0 gusting 6 6.7
2020-Jan-21 00:31 162 1 gusting 9 6.1
2020-Jan-21 00:16 182 0 gusting 7 6.1
2020-Jan-21 00:01 135 5.6
2020-Jan-20 23:47 177 0 gusting 10 5.6
2020-Jan-20 23:31 138 0 gusting 6 5.0
2020-Jan-20 23:17 147 0 gusting 8 5.0
2020-Jan-20 23:03 100 1 gusting 7 5.0
2020-Jan-20 22:45 115 0 gusting 6 5.0
2020-Jan-20 22:31 178 0 gusting 7 5.0
2020-Jan-20 22:15 173 0 gusting 6 5.0
2020-Jan-20 21:45 133 0 gusting 7 5.0
2020-Jan-20 21:31 217 1 gusting 7 4.4
2020-Jan-20 21:16 148 0 gusting 7 4.4
2020-Jan-20 20:48 121 1 gusting 7 5.0
2020-Jan-20 20:31 127 1 gusting 10 5.0
2020-Jan-20 20:16 157 0 gusting 9 5.0
2020-Jan-20 19:46 219 0 gusting 10 5.0
2020-Jan-20 19:31 165 1 gusting 7 5.0
2020-Jan-20 19:16 119 0 gusting 6 5.0
2020-Jan-20 18:46 138 2 gusting 11 5.6
2020-Jan-20 18:32 155 1 gusting 9 5.6
2020-Jan-20 18:16 153 1 gusting 10 5.0
2020-Jan-20 17:47 128 2 gusting 6 5.0
2020-Jan-20 17:32 140 0 gusting 10 5.6
2020-Jan-20 17:15 223 3 gusting 10 5.0
2020-Jan-20 16:48 122 1 gusting 8 5.0
2020-Jan-20 16:33 137 1 gusting 8 5.0
2020-Jan-20 16:30 111 0 gusting 8 5.0
2020-Jan-20 16:17 209 2 gusting 8 4.4
2020-Jan-20 15:47 160 3 gusting 8 4.4
2020-Jan-20 15:32 121 1 gusting 6 4.4
2020-Jan-20 15:16 141 2 gusting 10 4.4